CW0352 Weather Reports


Display with metric or nautical units.
time (UTC)temp
F
wind
direction
speed
MPH
gust
MPH
rain 1hr
in
rain 24hr
in
rain mn
in
humidity
%
barometer
mb
20260503032434 59 0 1.0 3.0 0.00 0.00 0.00 37 1017.9
20260503032141 60 0 1.0 2.0 0.00 0.00 0.00 36 1017.8
20260503032015 60 0 1.0 2.0 0.00 0.00 0.00 36 1017.8
20260503031349 60 0 1.0 2.0 0.00 0.00 0.00 36 1017.9
20260503030827 61 0 1.0 3.0 0.00 0.00 0.00 35 1017.8
20260503030310 61 0 1.0 3.0 0.00 0.00 0.00 35 1017.8
20260503025811 61 0 1.0 2.0 0.00 0.00 0.00 34 1017.8
20260503025311 62 0 0.0 3.0 0.00 0.00 0.00 34 1017.8
20260503024757 62 0 1.0 3.0 0.00 0.00 0.00 34 1017.6
20260503024259 63 0 0.0 2.0 0.00 0.00 0.00 33 1017.6
20260503023744 63 0 0.0 3.0 0.00 0.00 0.00 33 1017.6
20260503023219 64 0 0.0 2.0 0.00 0.00 0.00 32 1017.7
20260503022657 64 0 0.0 3.0 0.00 0.00 0.00 32 1017.6
20260503022404 65 0 1.0 3.0 0.00 0.00 0.00 31 1017.5
20260503022244 65 0 1.0 3.0 0.00 0.00 0.00 31 1017.5
20260503021624 65 0 0.0 2.0 0.00 0.00 0.00 31 1017.5
20260503021056 66 0 0.0 1.0 0.00 0.00 0.00 30 1017.5
20260503020758 66 0 0.0 1.0 0.00 0.00 0.00 29 1017.5
20260503020634 66 0 0.0 1.0 0.00 0.00 0.00 29 1017.5
20260503020022 67 0 0.0 2.0 0.00 0.00 0.00 30 1017.5
20260503015752 68 0 0.0 2.0 0.00 0.00 0.00 29 1017.5
20260503015623 68 0 0.0 2.0 0.00 0.00 0.00 29 1017.5
20260503015240 68 0 0.0 2.0 0.00 0.00 0.00 29 1017.5
20260503015121 68 0 0.0 2.0 0.00 0.00 0.00 29 1017.5
20260503014513 69 0 1.0 3.0 0.00 0.00 0.00 28 1017.5
20260503013950 69 0 1.0 3.0 0.00 0.00 0.00 27 1017.5
20260503013609 71 0 0.0 3.0 0.00 0.00 0.00 26 1017.4
20260503013503 70 0 0.0 3.0 0.00 0.00 0.00 27 1017.5
20260503012957 71 0 0.0 3.0 0.00 0.00 0.00 26 1017.4
20260503012406 72 0 0.0 2.0 0.00 0.00 0.00 25 1017.4
20260503011822 72 0 0.0 3.0 0.00 0.00 0.00 24 1017.4
20260503011319 73 0 0.0 3.0 0.00 0.00 0.00 23 1017.4
20260503010751 73 0 1.0 4.0 0.00 0.00 0.00 22 1017.4
20260503010225 73 0 1.0 4.0 0.00 0.00 0.00 21 1017.4
20260503005917 74 0 2.0 5.0 0.00 0.00 0.00 21 1017.4
20260503005801 74 0 2.0 5.0 0.00 0.00 0.00 21 1017.4
20260503005130 74 0 2.0 5.0 0.00 0.00 0.00 21 1017.5
20260503004900 74 0 2.0 5.0 0.00 0.00 0.00 22 1017.6
20260503004731 74 0 2.0 5.0 0.00 0.00 0.00 22 1017.6
20260503004322 74 0 2.0 5.0 0.00 0.00 0.00 21 1017.5
20260503004206 74 0 2.0 5.0 0.00 0.00 0.00 21 1017.5
20260503003532 75 0 3.0 5.0 0.00 0.00 0.00 21 1017.6
20260503003030 75 0 2.0 5.0 0.00 0.00 0.00 21 1017.5
20260503002527 75 0 2.0 5.0 0.00 0.00 0.00 22 1017.6
20260503002226 75 0 3.0 8.0 0.00 0.00 0.00 22 1017.6
20260503002105 75 0 3.0 8.0 0.00 0.00 0.00 22 1017.6
20260503001434 75 0 3.0 8.0 0.00 0.00 0.00 21 1017.7
20260503001208 75 0 3.0 8.0 0.00 0.00 0.00 22 1017.7
20260503001049 75 0 3.0 8.0 0.00 0.00 0.00 22 1017.7
20260503000431 75 0 4.0 10.0 0.00 0.00 0.00 21 1017.8
20260502235908 76 0 3.0 8.0 0.00 0.00 0.00 21 1017.8
20260502235353 76 0 3.0 10.0 0.00 0.00 0.00 20 1017.8
20260502234851 76 0 3.0 10.0 0.00 0.00 0.00 21 1017.9
20260502234406 76 212 2.0 6.0 0.00 0.00 0.00 20 1017.9
20260502233817 76 213 2.0 5.0 0.00 0.00 0.00 21 1018.0
20260502233313 76 0 2.0 9.0 0.00 0.00 0.00 22 1018.1
20260502232751 75 0 3.0 10.0 0.00 0.00 0.00 22 1018.1
20260502232243 75 0 3.0 10.0 0.00 0.00 0.00 23 1018.2
20260502231717 75 0 3.0 11.0 0.00 0.00 0.00 24 1018.2
20260502231213 74 0 5.0 11.0 0.00 0.00 0.00 24 1018.3
20260502230711 74 0 6.0 11.0 0.00 0.00 0.00 24 1018.4
20260502230154 74 0 6.0 16.0 0.00 0.00 0.00 23 1018.4
20260502225654 75 0 4.0 16.0 0.00 0.00 0.00 23 1018.4
20260502225147 75 0 2.0 8.0 0.00 0.00 0.00 24 1018.3
20260502224620 75 0 3.0 6.0 0.00 0.00 0.00 24 1018.6
20260502224052 74 0 5.0 10.0 0.00 0.00 0.00 24 1018.7
20260502223526 75 0 4.0 11.0 0.00 0.00 0.00 24 1018.7
20260502222956 74 0 4.0 11.0 0.00 0.00 0.00 24 1018.8
20260502222429 74 0 3.0 10.0 0.00 0.00 0.00 24 1018.9
20260502221926 74 0 4.0 13.0 0.00 0.00 0.00 24 1019.0
20260502221427 73 0 6.0 13.0 0.00 0.00 0.00 24 1019.1
20260502220908 74 0 7.0 13.0 0.00 0.00 0.00 24 1019.2
20260502220351 74 0 6.0 13.0 0.00 0.00 0.00 24 1019.4
20260502220111 74 0 4.0 12.0 0.00 0.00 0.00 24 1019.4
20260502215958 74 0 4.0 12.0 0.00 0.00 0.00 24 1019.4
20260502215328 74 0 3.0 10.0 0.00 0.00 0.00 25 1019.5
20260502214823 74 0 4.0 10.0 0.00 0.00 0.00 24 1019.7
20260502214300 74 0 5.0 13.0 0.00 0.00 0.00 24 1019.7
20260502213752 74 0 3.0 12.0 0.00 0.00 0.00 24 1019.9
20260502213738 74 0 6.0 13.0 0.00 0.00 0.00 24 1019.8
20260502213704 74 0 3.0 12.0 0.00 0.00 0.00 24 1019.9
20260502212714 75 0 2.0 11.0 0.00 0.00 0.00 25 1020.1
20260502212429 74 0 5.0 13.0 0.00 0.00 0.00 25 1020.2
20260502212316 74 0 5.0 13.0 0.00 0.00 0.00 25 1020.2
20260502211908 73 0 4.0 13.0 0.00 0.00 0.00 25 1020.3
20260502211751 73 0 4.0 13.0 0.00 0.00 0.00 25 1020.3
20260502211124 73 0 3.0 10.0 0.00 0.00 0.00 25 1020.3
20260502210622 73 0 4.0 12.0 0.00 0.00 0.00 26 1020.4
20260502210115 73 0 4.0 12.0 0.00 0.00 0.00 25 1020.5
20260502205610 73 0 5.0 12.0 0.00 0.00 0.00 25 1020.6
20260502205111 73 0 5.0 12.0 0.00 0.00 0.00 25 1020.8
20260502204607 74 0 3.0 12.0 0.00 0.00 0.00 24 1020.8
20260502204107 74 0 3.0 9.0 0.00 0.00 0.00 25 1020.9
20260502203554 72 0 4.0 11.0 0.00 0.00 0.00 26 1021.0
20260502203031 72 0 4.0 11.0 0.00 0.00 0.00 26 1021.2
20260502202739 72 0 5.0 11.0 0.00 0.00 0.00 25 1021.2
20260502202611 72 0 5.0 11.0 0.00 0.00 0.00 25 1021.2
20260502201947 72 0 3.0 11.0 0.00 0.00 0.00 26 1021.2
20260502201446 71 0 3.0 11.0 0.00 0.00 0.00 26 1021.4
20260502200921 71 0 4.0 11.0 0.00 0.00 0.00 27 1021.6
20260502200355 70 0 4.0 9.0 0.00 0.00 0.00 28 1021.6
20260502195835 70 0 5.0 12.0 0.00 0.00 0.00 28 1021.6
20260502195307 70 0 5.0 11.0 0.00 0.00 0.00 28 1021.7
20260502195006 70 0 5.0 11.0 0.00 0.00 0.00 28 1021.7
20260502194849 70 0 5.0 11.0 0.00 0.00 0.00 28 1021.7
20260502194218 71 0 4.0 12.0 0.00 0.00 0.00 28 1021.7
20260502193726 71 0 3.0 10.0 0.00 0.00 0.00 28 1021.9
20260502193715 71 0 4.0 12.0 0.00 0.00 0.00 27 1022.0
20260502193617 71 0 3.0 10.0 0.00 0.00 0.00 28 1021.9
20260502192629 71 0 2.0 9.0 0.00 0.00 0.00 28 1022.2
20260502192106 70 0 3.0 10.0 0.00 0.00 0.00 27 1022.2
20260502191546 70 0 4.0 10.0 0.00 0.00 0.00 28 1022.4
20260502191047 70 0 4.0 9.0 0.00 0.00 0.00 29 1022.4
20260502190809 70 0 4.0 9.0 0.00 0.00 0.00 28 1022.5
20260502190642 70 0 4.0 9.0 0.00 0.00 0.00 28 1022.5
20260502190051 69 0 3.0 9.0 0.00 0.00 0.00 30 1022.4
20260502185540 69 0 4.0 11.0 0.00 0.00 0.00 30 1022.6
20260502185039 68 0 5.0 11.0 0.00 0.00 0.00 31 1022.6
20260502184804 69 0 4.0 10.0 0.00 0.00 0.00 29 1022.7
20260502184641 69 0 4.0 10.0 0.00 0.00 0.00 29 1022.7
20260502184010 70 0 2.0 9.0 0.00 0.00 0.00 29 1022.8
20260502183507 69 0 3.0 8.0 0.00 0.00 0.00 29 1023.0
20260502183206 69 0 3.0 11.0 0.00 0.00 0.00 30 1023.0
20260502182440 68 0 3.0 11.0 0.00 0.00 0.00 33 1023.0
20260502182409 67 0 2.0 10.0 0.00 0.00 0.00 33 1023.1
20260502182018 67 0 2.0 10.0 0.00 0.00 0.00 33 1023.1
20260502181348 67 0 4.0 11.0 0.00 0.00 0.00 32 1023.1
20260502180824 67 0 4.0 12.0 0.00 0.00 0.00 33 1023.3
20260502180302 66 0 4.0 10.0 0.00 0.00 0.00 34 1023.4
20260502170431 64 0 3.0 9.0 0.00 0.00 0.00 36 1024.2
20260502164329 62 0 3.0 9.0 0.00 0.00 0.00 37 1024.2
20260502164040 62 0 3.0 9.0 0.00 0.00 0.00 37 1024.4
20260502163908 62 0 3.0 9.0 0.00 0.00 0.00 37 1024.4
20260502163238 61 0 3.0 8.0 0.00 0.00 0.00 38 1024.3
20260502162712 62 0 2.0 6.0 0.00 0.00 0.00 38 1024.3
20260502162429 61 0 2.0 6.0 0.00 0.00 0.00 41 1024.3
20260502162313 61 0 2.0 6.0 0.00 0.00 0.00 41 1024.3
20260502161708 60 0 3.0 10.0 0.00 0.00 0.00 41 1024.3
20260502161202 59 0 3.0 10.0 0.00 0.00 0.00 43 1024.4
20260502160637 59 0 3.0 6.0 0.00 0.00 0.00 44 1024.5
20260502160349 59 0 3.0 8.0 0.00 0.00 0.00 43 1024.5
20260502160236 59 0 3.0 8.0 0.00 0.00 0.00 43 1024.5
20260502152014 55 0 3.0 6.0 0.00 0.00 0.00 50 1024.5
20260502151512 55 0 3.0 6.0 0.00 0.00 0.00 48 1024.4
20260502151011 54 0 2.0 6.0 0.00 0.00 0.00 50 1024.4
20260502150507 54 0 2.0 8.0 0.00 0.00 0.00 51 1024.5
20260502130425 32 0 0.0 0.0 0.00 0.00 0.00 87 1024.4
20260502130125 32 0 0.0 1.0 0.00 0.00 0.00 87 1024.4
20260502123318 30 0 0.0 2.0 0.00 0.00 0.00 88 1024.2
20260502122755 30 0 0.0 2.0 0.00 0.00 0.00 87 1024.1
20260502122323 30 0 0.0 0.0 0.00 0.00 0.00 87 1024.1
20260502122238 30 0 0.0 0.0 0.00 0.00 0.00 87 1024.1
20260502122032 30 0 0.0 0.0 0.00 0.00 0.00 87 1024.1
20260502121236 30 0 0.0 2.0 0.00 0.00 0.00 86 1024.1
20260502121109 30 0 0.0 2.0 0.00 0.00 0.00 86 1024.1
20260502121035 30 0 0.0 2.0 0.00 0.00 0.00 86 1024.1
20260502120232 30 0 0.0 2.0 0.00 0.00 0.00 86 1024.1
20260502115817 31 0 0.0 2.0 0.00 0.00 0.00 86 1023.9
20260502115149 31 0 0.0 1.0 0.00 0.00 0.00 87 1023.8
20260502114904 31 0 0.0 1.0 0.00 0.00 0.00 87 1024.1
20260502114140 31 0 0.0 1.0 0.00 0.00 0.00 87 1024.1
20260502113849 31 0 0.0 1.0 0.00 0.00 0.00 87 1023.8
20260502113731 31 0 0.0 1.0 0.00 0.00 0.00 87 1023.8
20260502113056 31 0 1.0 3.0 0.00 0.00 0.00 87 1023.8
20260502112535 31 0 1.0 3.0 0.00 0.00 0.00 87 1023.8
20260502112036 31 0 0.0 2.0 0.00 0.00 0.00 87 1023.8
20260502111534 31 0 1.0 3.0 0.00 0.00 0.00 86 1023.7
20260502111034 31 0 1.0 3.0 0.00 0.00 0.00 86 1023.8
20260502110532 31 0 0.0 3.0 0.00 0.00 0.00 86 1023.8
20260502110034 31 0 0.0 2.0 0.00 0.00 0.00 86 1023.9
20260502105524 31 0 0.0 2.0 0.00 0.00 0.00 86 1023.8
20260502105021 31 0 0.0 2.0 0.00 0.00 0.00 86 1023.9
20260502104949 31 0 0.0 2.0 0.00 0.00 0.00 86 1023.9
20260502104604 31 0 0.0 2.0 0.00 0.00 0.00 86 1023.9
20260502104430 31 0 0.0 0.0 0.00 0.00 0.00 85 1023.9
20260502104037 31 0 0.0 0.0 0.00 0.00 0.00 85 1023.9
20260502103406 32 0 1.0 4.0 0.00 0.00 0.00 85 1023.8
20260502102842 32 0 1.0 4.0 0.00 0.00 0.00 85 1023.8
20260502102339 32 0 0.0 0.0 0.00 0.00 0.00 84 1023.9
20260502101835 32 0 0.0 0.0 0.00 0.00 0.00 84 1023.8
20260502101325 32 0 0.0 3.0 0.00 0.00 0.00 83 1023.8
20260502100821 32 0 1.0 3.0 0.00 0.00 0.00 83 1023.7
20260502100323 32 0 1.0 3.0 0.00 0.00 0.00 82 1023.7
20260502091127 34 0 1.0 2.0 0.00 0.00 0.00 81 1023.6
20260502090846 35 0 0.0 2.0 0.00 0.00 0.00 80 1023.5
20260502090729 35 0 0.0 2.0 0.00 0.00 0.00 80 1023.5
20260502090121 35 0 0.0 0.0 0.00 0.00 0.00 80 1023.7
20260502071026 41 0 1.0 3.0 0.00 0.00 0.00 74 1023.6
20260502070748 41 0 1.0 2.0 0.00 0.00 0.00 74 1023.3
20260502070625 41 0 1.0 2.0 0.00 0.00 0.00 74 1023.3
20260502070300 42 0 0.0 2.0 0.00 0.00 0.00 73 1023.4
20260502070228 42 0 0.0 2.0 0.00 0.00 0.00 73 1023.4
20260502065430 42 0 1.0 4.0 0.00 0.00 0.00 73 1023.5
20260502064908 42 0 1.0 3.0 0.00 0.00 0.00 73 1023.4
20260502064342 42 0 1.0 3.0 0.00 0.00 0.00 73 1023.5
20260502063813 42 0 1.0 3.0 0.00 0.00 0.00 73 1023.4
20260502063511 42 0 1.0 5.0 0.00 0.00 0.00 72 1023.2
20260502063349 42 0 1.0 5.0 0.00 0.00 0.00 72 1023.2
20260502062746 42 0 3.0 5.0 0.00 0.00 0.00 72 1023.2
20260502062239 42 0 2.0 6.0 0.00 0.00 0.00 71 1023.3
20260502061713 43 0 1.0 5.0 0.00 0.00 0.00 70 1023.3
20260502061147 44 0 1.0 4.0 0.00 0.00 0.00 69 1023.2
20260502060621 44 0 2.0 6.0 0.00 0.00 0.00 68 1023.0
20260502060116 45 0 2.0 5.0 0.00 0.00 0.00 68 1023.2
20260502055610 45 0 1.0 3.0 0.00 0.00 0.00 67 1023.1
20260502055310 46 0 1.0 4.0 0.00 0.00 0.00 66 1023.0
20260502055158 46 0 1.0 4.0 0.00 0.00 0.00 66 1023.0
20260502054530 46 0 2.0 9.0 0.00 0.00 0.00 65 1023.0
20260502054025 47 0 1.0 5.0 0.00 0.00 0.00 65 1023.0
20260502053458 47 0 1.0 3.0 0.00 0.00 0.00 65 1022.7
20260502052934 47 0 0.0 2.0 0.00 0.00 0.00 63 1022.6
20260502052428 47 0 1.0 2.0 0.00 0.00 0.00 63 1022.6
20260502051925 48 0 1.0 3.0 0.00 0.00 0.00 63 1022.6
20260502051420 48 0 1.0 4.0 0.00 0.00 0.00 63 1022.5
20260502050919 48 0 1.0 4.0 0.00 0.00 0.00 62 1022.5
20260502050415 48 0 1.0 5.0 0.00 0.00 0.00 62 1022.6
20260502045852 48 0 2.0 5.0 0.00 0.00 0.00 62 1022.6
20260502045349 48 0 2.0 5.0 0.00 0.00 0.00 62 1022.4
20260502044826 48 0 2.0 5.0 0.00 0.00 0.00 62 1022.4
20260502044321 48 0 2.0 5.0 0.00 0.00 0.00 62 1022.5
20260502043757 48 0 2.0 5.0 0.00 0.00 0.00 61 1022.6
20260502043450 48 0 2.0 4.0 0.00 0.00 0.00 61 1022.5
20260502043334 48 0 2.0 4.0 0.00 0.00 0.00 61 1022.5
20260502042706 48 0 2.0 4.0 0.00 0.00 0.00 61 1022.5
20260502042141 48 0 3.0 9.0 0.00 0.00 0.00 61 1022.4
20260502041640 48 0 3.0 9.0 0.00 0.00 0.00 60 1022.4
20260502041130 49 0 2.0 6.0 0.00 0.00 0.00 60 1022.4
20260502040552 49 0 3.0 5.0 0.00 0.00 0.00 59 1022.4
20260502040023 49 0 3.0 6.0 0.00 0.00 0.00 59 1022.2
20260502035503 49 0 4.0 9.0 0.00 0.00 0.00 58 1022.2
20260502034937 49 0 5.0 9.0 0.00 0.00 0.00 58 1022.1
20260502034421 49 0 5.0 9.0 0.00 0.00 0.00 58 1022.1
20260502033859 50 0 5.0 10.0 0.00 0.00 0.00 57 1022.1
20260502033608 50 0 5.0 10.0 0.00 0.00 0.00 56 1021.9
20260502033452 50 0 5.0 10.0 0.00 0.00 0.00 56 1021.9
20260502032846 50 0 5.0 11.0 0.00 0.00 0.00 55 1021.7